Other Surface Observations
Issued by NWS

Home | Current Version | Previous Version | Text Only | Print | Product List | Glossary On
Versions: 1 2 3 4 5 6 7 8 9 10 11 12 13 14 15 16 17 18 19 20 21 22 23 24 25 26 27 28 29 30 31 32 33 34 35 36 37 38 39 40 41 42 43 44 45 46 47 48 49 50
778
SXUS52 KTAE 022118
OSOTAE
OSOTAE
North Florida/South Alabama/Southwest Georgia Weather Roundup
National Weather Service Tallahassee Florida
500 PM EDT MON MAY 02 2016

Note: "fair" indicates few or no clouds below 12,000 feet with no
significant weather and/or obstructions to visibility.

!FLZ017-115-028-034-025-022200
...North Florida...

CITY           SKY/WX    TMP DP  RH WIND       PRES   REMARKS
TALLAHASSEE    PTSUNNY   88  68  51 S13       29.93F HX  91
APALACHICOLA   SUNNY     82  74  76 S10       29.95F
PERRY          SUNNY     85  68  56 S10       29.96F
CROSS CITY       N/A     87  67  51 SW13      29.95F HX  90
JACKSONVILLE   CLOUDY    83  71  67 SE14      29.94F
$$

!FLZ112-006-005-002-011-022200
...Florida Panhandle...

CITY           SKY/WX    TMP DP  RH WIND       PRES   REMARKS
MARIANNA       CLOUDY    73  67  81 NE3       29.93S THUNDER
BONIFAY        NOT AVBL
PANAMA CITY NW FAIR      83  70  64 S14       29.94F
TYNDALL AFB    NOT AVBL
TYND DRONE APT NOT AVBL
DE FUNIAK SPR  FAIR      81  67  62 SW9       29.95F
EGLIN AFB      NOT AVBL
DESTIN         MOSUNNY   82  75  79 S8        29.95F
HURLBURT       NOT AVBL
CRESTVIEW      CLOUDY    82  67  60 S9        29.95F
PENSACOLA      MOSUNNY   81  70  69 S15       29.94F
$$

!ALZ063-066-022200
...South Alabama...

CITY           SKY/WX    TMP DP  RH WIND       PRES   REMARKS
DOTHAN         CLOUDY    84  65  52 SW13      29.96F
OZARK CAIRNS   NOT AVBL
FT RUCKER HELI CLOUDY    84  64  50 SW12G18   29.91F
RUCKER HELI 3  NOT AVBL
RUCKER HELI 2  NOT AVBL
FLORALA APT    PTSUNNY   80  67  64 SW7       29.95F
ANDALUSIA      CLOUDY    83  69  62 S5        29.93F
TROY           CLOUDY    80  68  66 SW6       29.93F
EUFALA         HVY RAIN  74  69  85 NW8       29.92F VSB 3/4
MOBILE         LGT RAIN  75  73  93 SE3       29.94F
$$

!GAZ120>161-022200
...Southwest and South Central Georgia...

CITY           SKY/WX    TMP DP  RH WIND       PRES   REMARKS
THOMASVILLE    FAIR      84  68  58 SW5       29.95F
BAINBRIDGE     CLOUDY    79  68  69 NW3       29.94F
MOODY AFB      NOT AVBL
VALDOSTA       CLOUDY    78  71  79 CALM      29.95F
MOULTRIE       CLOUDY    82  68  61 S6        29.95F
BLAKELY        CLOUDY    84  70  61 CALM      29.94F
ALBANY         LGT RAIN  84  69  60 W6        29.95F
TIFTON         PTSUNNY   82  73  72 S5        29.93F
FITZGERALD     FAIR      79  69  71 N3        29.97F
CORDELE        FAIR      85  70  60 CALM      29.94F HX  90
AMERICUS       MOCLDY    82  63  51 SW6       29.94F
HOMERVILLE     FAIR      81  70  69 W14G20    29.95S
$$

!GMZ750-755-770-775-022200
...Coastal and Buoy Obs...

STATION/POSITION TIME  TEMP    WIND        PRES    VSBY  WAVE
                       AIR SEA DIR/SP/G                  HT/PER
                 (UTC) (F)     (DEG/KT/KT) (MB)    (MI)  (FT/S)
KEATON BEACH     2100   78     220/ 11/ 12 1014.4F
CEDAR KEY        2100   80     270/  9/ 10 1015.0F
C TOWER          2100   76     170/  6/  7 1015.1F
APALACHICOLA BUO 2050   77 77  140/  6/  8 1014.4F         2/ 5
PANAMA CITY BUOY 2050   79 79  200/  8/ 10 1014.5F         3/ 5
MOBILE BUOY      2100   77 77  170/  4/  6 1014.0F
ORANGE BCH AL BU 2050   77 76  160/  8/  8 1013.1F         4/ 7
$$




USA.gov is the U.S. government's official web portal to all federal, state and local government web resources and services.